Search the data

BODC Cruise Metadata Report for FRV Scotia (748S) cruise 1815S

Introduction

This report collates information from the BODC cruise inventory and oceanographic databases. It presents

Cruise Inventory Information

Long name FRV Scotia (748S) cruise 1815S
Short name 1815S
Objectives and Narrative Objectives

1. Test the CTD in the Buchan Deep off Peterhead and test plankton crane, winch system and ARIES at an appropriate location before its first use.
2. Perform routine hydrographic sampling at stations along the long term monitoring JONSIS section in the northern North Sea.
3. Perform routine hydrographic sampling at stations along the long term monitoring Faroe-Shetland Channel sections: Fair Isle-Munken and Nolso-Flugga.
4. Conduct combined plankton/hydrographic observations by deploying Aries in the Faroe-Shetland-Channel at selected stations on the Fair Isle-Munken and Nolso-Flugga lines.
5. Take nutrient, chlorophyll, TA/DIC, oxygen samples along all standard lines.
6. Take oxygen isotope samples along the Faroe-Shetland-Channel sections.
7. Take water samples for bacterial analysis by Heriot Watt University at locations along the long term monitoring sections.
8. Take water samples to investigate the formation of Marine Oil Snow in incubations with Schehallion crude oil by Heriot Watt University along the long term monitoring sections.
9. Run the thermosalinograph throughout.
10. Run the pCO2 system throughout.
11. If time, conduct sampling along any of the following sections (in order of priority, no water sampling)
Shelf 0, Shelf 1, Fair Isle N-S, NS-1;
FCW/NWZ, Shelf 2;
WS-1, Fair Isle E-W, ES-1, ES-2, ES-3, WS-2;
East Coast.
12. If sheltering in a suitable location (around Shetland, Orkney and Pentland Firth) due to bad weather conduct VMADP survey.
Ship FRV Scotia
Departure Port Aberdeen, United Kingdom
Departure Date 2015-12-10
Arrival Port Aberdeen, United Kingdom
Arrival Date 2015-12-22
Principal Scientist(s) Berit Rabe (Marine Scotland Aberdeen Marine Laboratory)
Responsible Organisation Marine Scotland Aberdeen Marine Laboratory
Associated Project(s)
IHB Sea Areas Visited North Sea, North East Atlantic Ocean (limit 40W)
Marsden Squares Visited 181;4/184;3/216;3/217;1/217;2/252;1
Work Area Description Northern North Sea, Faroe-Shetland Channel.
Work Area Bounding Polygon 55N,35W; 65N,35W; 65N,5E; 55N,5E; 55N,35W
Southern Limit 55N
Northern Limit 65N
Western Limit 35W
Eastern Limit 5E

Cruise Inventory Datasets

No information on datasets is currently available for this cruise

Cruise Inventory Mooring/Buoy Operations

No information on datasets is currently available

Summary of BODC Data Holdings for the Cruise

National Oceanographic Database

Summary

# Series Instrument Description Parameters
108 CTD/STD cast Chlorophyll pigment concentrations in water bodies
Concentration of suspended particulate material in the water column
Density of the water column
Dissolved oxygen parameters in the water column
Electrical conductivity of the water column
Light absorption in the water column
Reference numbers
Salinity of the water column
Temperature of the water column
Vertical spatial coordinates

Note: Parameter terms are taken from the BODC Parameter Discovery Vocabulary XML (SKOS)

Full List

BODC Reference Instrument Description Date/Time Location  
1886240 CTD/STD cast 2015-12-10 13:36Z 57° 30' N, 1° 21' W Click for more
1886252 CTD/STD cast 2015-12-10 14:07Z 57° 30' N, 1° 21' W Click for more
1886264 CTD/STD cast 2015-12-11 02:42Z 59° 17' N, 0° 0' E Click for more
1886276 CTD/STD cast 2015-12-11 03:38Z 59° 17' N, 0° 0' E Click for more
1886288 CTD/STD cast 2015-12-11 05:21Z 59° 17' N, 0° 19' W Click for more
1886307 CTD/STD cast 2015-12-11 07:07Z 59° 17' N, 0° 39' W Click for more
1886319 CTD/STD cast 2015-12-11 08:45Z 59° 16' N, 0° 59' W Click for more
1886320 CTD/STD cast 2015-12-11 09:54Z 59° 16' N, 1° 9' W Click for more
1886332 CTD/STD cast 2015-12-11 10:47Z 59° 16' N, 1° 9' W Click for more
1886344 CTD/STD cast 2015-12-11 11:58Z 59° 16' N, 1° 19' W Click for more
1886356 CTD/STD cast 2015-12-11 13:09Z 59° 16' N, 1° 30' W Click for more
1886368 CTD/STD cast 2015-12-11 14:17Z 59° 16' N, 1° 39' W Click for more
1886381 CTD/STD cast 2015-12-11 15:22Z 59° 17' N, 1° 48' W Click for more
1886393 CTD/STD cast 2015-12-11 15:44Z 59° 17' N, 1° 48' W Click for more
1886400 CTD/STD cast 2015-12-11 16:40Z 59° 17' N, 1° 55' W Click for more
1886412 CTD/STD cast 2015-12-11 17:33Z 59° 16' N, 2° 4' W Click for more
1886424 CTD/STD cast 2015-12-11 18:30Z 59° 16' N, 2° 13' W Click for more
1886436 CTD/STD cast 2015-12-11 18:54Z 59° 16' N, 2° 13' W Click for more
1886448 CTD/STD cast 2015-12-12 07:42Z 60° 55' N, 1° 0' W Click for more
1886461 CTD/STD cast 2015-12-12 09:14Z 60° 58' N, 1° 17' W Click for more
1886473 CTD/STD cast 2015-12-12 11:28Z 61° 1' N, 1° 35' W Click for more
1886485 CTD/STD cast 2015-12-12 13:00Z 61° 4' N, 1° 52' W Click for more
1886497 CTD/STD cast 2015-12-12 13:38Z 61° 4' N, 1° 52' W Click for more
1886504 CTD/STD cast 2015-12-12 14:51Z 61° 6' N, 2° 1' W Click for more
1886516 CTD/STD cast 2015-12-12 18:00Z 61° 8' N, 2° 9' W Click for more
1886528 CTD/STD cast 2015-12-12 19:22Z 61° 9' N, 2° 17' W Click for more
1886541 CTD/STD cast 2015-12-12 20:59Z 61° 11' N, 2° 25' W Click for more
1886553 CTD/STD cast 2015-12-12 23:04Z 61° 13' N, 2° 39' W Click for more
1886565 CTD/STD cast 2015-12-13 01:05Z 61° 13' N, 2° 39' W Click for more
1886577 CTD/STD cast 2015-12-13 06:49Z 61° 21' N, 3° 9' W Click for more
1886589 CTD/STD cast 2015-12-13 12:49Z 61° 28' N, 3° 41' W Click for more
1886590 CTD/STD cast 2015-12-13 14:32Z 61° 28' N, 3° 41' W Click for more
1886608 CTD/STD cast 2015-12-13 18:19Z 61° 31' N, 3° 56' W Click for more
1886621 CTD/STD cast 2015-12-13 20:53Z 61° 34' N, 4° 15' W Click for more
1886633 CTD/STD cast 2015-12-14 00:53Z 61° 37' N, 4° 33' W Click for more
1886645 CTD/STD cast 2015-12-14 03:24Z 61° 42' N, 4° 51' W Click for more
1886657 CTD/STD cast 2015-12-14 03:59Z 61° 42' N, 4° 51' W Click for more
1886669 CTD/STD cast 2015-12-14 06:51Z 61° 49' N, 5° 21' W Click for more
1886670 CTD/STD cast 2015-12-14 08:30Z 61° 54' N, 5° 45' W Click for more
1886682 CTD/STD cast 2015-12-14 10:31Z 62° 0' N, 6° 11' W Click for more
1886694 CTD/STD cast 2015-12-14 10:56Z 62° 0' N, 6° 11' W Click for more
1886701 CTD/STD cast 2015-12-14 15:43Z 61° 16' N, 6° 39' W Click for more
1886713 CTD/STD cast 2015-12-14 17:19Z 61° 12' N, 6° 22' W Click for more
1886725 CTD/STD cast 2015-12-14 17:55Z 61° 12' N, 6° 22' W Click for more
1886737 CTD/STD cast 2015-12-14 19:14Z 61° 7' N, 6° 9' W Click for more
1886749 CTD/STD cast 2015-12-14 20:32Z 61° 1' N, 5° 57' W Click for more
1886750 CTD/STD cast 2015-12-14 22:34Z 60° 57' N, 5° 42' W Click for more
1886762 CTD/STD cast 2015-12-15 00:15Z 60° 51' N, 5° 28' W Click for more
1886774 CTD/STD cast 2015-12-15 01:56Z 60° 46' N, 5° 16' W Click for more
1886786 CTD/STD cast 2015-12-15 03:18Z 60° 46' N, 5° 16' W Click for more
1886798 CTD/STD cast 2015-12-15 05:18Z 60° 42' N, 5° 6' W Click for more
1886805 CTD/STD cast 2015-12-15 09:07Z 60° 38' N, 4° 54' W Click for more
1886817 CTD/STD cast 2015-12-15 14:20Z 60° 35' N, 4° 45' W Click for more
1886829 CTD/STD cast 2015-12-15 16:28Z 60° 35' N, 4° 45' W Click for more
1886830 CTD/STD cast 2015-12-15 19:40Z 60° 29' N, 4° 26' W Click for more
1886842 CTD/STD cast 2015-12-15 22:52Z 60° 25' N, 4° 19' W Click for more
1886854 CTD/STD cast 2015-12-16 02:37Z 60° 18' N, 4° 4' W Click for more
1886866 CTD/STD cast 2015-12-16 04:58Z 60° 16' N, 3° 59' W Click for more
1886878 CTD/STD cast 2015-12-16 06:58Z 60° 13' N, 3° 51' W Click for more
1886891 CTD/STD cast 2015-12-16 08:47Z 60° 10' N, 3° 43' W Click for more
1886909 CTD/STD cast 2015-12-16 13:26Z 60° 15' N, 4° 37' W Click for more
1886910 CTD/STD cast 2015-12-16 15:57Z 60° 8' N, 4° 24' W Click for more
1886922 CTD/STD cast 2015-12-16 18:15Z 60° 1' N, 4° 10' W Click for more
1886934 CTD/STD cast 2015-12-16 20:35Z 59° 54' N, 3° 55' W Click for more
1886946 CTD/STD cast 2015-12-16 23:15Z 59° 46' N, 3° 41' W Click for more
1886958 CTD/STD cast 2015-12-17 02:22Z 59° 39' N, 3° 27' W Click for more
1886971 CTD/STD cast 2015-12-17 04:08Z 59° 36' N, 3° 21' W Click for more
1886983 CTD/STD cast 2015-12-17 05:16Z 59° 32' N, 3° 14' W Click for more
1886995 CTD/STD cast 2015-12-17 06:23Z 59° 28' N, 3° 7' W Click for more
1887009 CTD/STD cast 2015-12-17 10:30Z 59° 25' N, 2° 15' W Click for more
1887010 CTD/STD cast 2015-12-17 11:39Z 59° 29' N, 2° 7' W Click for more
1887022 CTD/STD cast 2015-12-17 13:01Z 59° 32' N, 2° 0' W Click for more
1887034 CTD/STD cast 2015-12-17 14:43Z 59° 36' N, 1° 52' W Click for more
1887046 CTD/STD cast 2015-12-17 16:14Z 59° 39' N, 1° 46' W Click for more
1887058 CTD/STD cast 2015-12-17 17:22Z 59° 42' N, 1° 38' W Click for more
1887071 CTD/STD cast 2015-12-17 18:37Z 59° 46' N, 1° 31' W Click for more
1887083 CTD/STD cast 2015-12-17 19:32Z 59° 49' N, 1° 24' W Click for more
1887095 CTD/STD cast 2015-12-18 00:58Z 59° 22' N, 1° 20' W Click for more
1887102 CTD/STD cast 2015-12-18 02:30Z 59° 27' N, 1° 27' W Click for more
1887114 CTD/STD cast 2015-12-18 04:04Z 59° 31' N, 1° 34' W Click for more
1887126 CTD/STD cast 2015-12-18 05:36Z 59° 34' N, 1° 43' W Click for more
1887138 CTD/STD cast 2015-12-18 06:39Z 59° 37' N, 1° 51' W Click for more
1887151 CTD/STD cast 2015-12-18 08:02Z 59° 43' N, 1° 58' W Click for more
1887163 CTD/STD cast 2015-12-18 09:19Z 59° 47' N, 2° 6' W Click for more
1887175 CTD/STD cast 2015-12-18 10:33Z 59° 49' N, 2° 15' W Click for more
1887187 CTD/STD cast 2015-12-18 16:05Z 60° 0' N, 1° 7' W Click for more
1887199 CTD/STD cast 2015-12-18 16:44Z 60° 0' N, 1° 2' W Click for more
1887206 CTD/STD cast 2015-12-18 17:14Z 60° 0' N, 1° 0' W Click for more
1887218 CTD/STD cast 2015-12-18 18:20Z 60° 0' N, 0° 54' W Click for more
1887231 CTD/STD cast 2015-12-18 19:04Z 60° 0' N, 0° 49' W Click for more
1887243 CTD/STD cast 2015-12-18 20:15Z 60° 0' N, 0° 40' W Click for more
1887255 CTD/STD cast 2015-12-18 21:17Z 60° 0' N, 0° 30' W Click for more
1887267 CTD/STD cast 2015-12-18 22:16Z 60° 0' N, 0° 20' W Click for more
1887279 CTD/STD cast 2015-12-19 00:21Z 60° 0' N, 0° 0' E Click for more
1887280 CTD/STD cast 2015-12-19 02:11Z 60° 0' N, 0° 19' E Click for more
1887292 CTD/STD cast 2015-12-19 03:57Z 60° 0' N, 0° 40' E Click for more
1887311 CTD/STD cast 2015-12-19 05:42Z 60° 0' N, 1° 0' E Click for more
1887323 CTD/STD cast 2015-12-19 07:16Z 60° 0' N, 1° 19' E Click for more
1887335 CTD/STD cast 2015-12-19 08:46Z 60° 0' N, 1° 39' E Click for more
1887347 CTD/STD cast 2015-12-19 12:07Z 60° 30' N, 1° 40' E Click for more
1887359 CTD/STD cast 2015-12-19 13:52Z 60° 30' N, 1° 19' E Click for more
1887360 CTD/STD cast 2015-12-19 15:46Z 60° 30' N, 1° 0' E Click for more
1887372 CTD/STD cast 2015-12-19 17:21Z 60° 30' N, 0° 40' E Click for more
1887384 CTD/STD cast 2015-12-20 08:02Z 60° 30' N, 1° 0' W Click for more
1887396 CTD/STD cast 2015-12-20 08:55Z 60° 30' N, 0° 49' W Click for more
1887403 CTD/STD cast 2015-12-20 09:49Z 60° 30' N, 0° 40' W Click for more
1887415 CTD/STD cast 2015-12-20 10:44Z 60° 30' N, 0° 30' W Click for more
1887427 CTD/STD cast 2015-12-20 11:36Z 60° 30' N, 0° 20' W Click for more

Project Database

No data currently held for this cruise in the BODC Project Database

References

Track Charts

Track Chart

Reports

Cruise Report